Herat, Afghanistan

9:32 PM +0430 on December 15, 2017 (GMT +0430)
Herat

Weather History for OAHR - May, 2014

Change the Weather History Date:

Monday, May 19, 2014

  Actual Average Record
Temperature  
Mean Temperature 71 °F -  
Max Temperature 87 °F 91 °F - ()
Min Temperature 55 °F 62 °F - ()
Cooling Degree Days 6    
Growing Degree Days 21 (Base 50)    
Moisture  
Dew Point 33 °F    
Average Humidity 27    
Maximum Humidity 55    
Minimum Humidity 9    
Precipitation  
Precipitation 0.00 in 0.00 in - ()
Sea Level Pressure  
Sea Level Pressure 30.00 in    
Wind  
Wind Speed 3 mph ()    
Max Wind Speed 7 mph    
Max Gust Speed -    
Visibility 6.2 miles    
Events      
T = Trace of Precipitation, MM = Missing Value Source: Averaged Metar Reports

Daily Weather History Graph

Daily Weather History Graph

Search for Another Location

Airport or City:

Trip Planner

Search our weather history database for the weather conditions in past years. The results will help you decide how hot, cold, wet, or windy it might be!

Date:

Astronomy

May. 19, 2014 Rise Set
Actual Time 5:16 AM +0430 7:18 PM +0430
Civil Twilight 4:48 AM +0430 7:46 PM +0430
Nautical Twilight 4:14 AM +0430 8:20 PM +0430
Astronomical Twilight 3:38 AM +0430 8:57 PM +0430
Moon 11:37 PM +0430 (5/19) 9:42 AM +0430 (5/19)
Length of Visible Light 14h 58m
Length of Day
14h 02m
Waning Gibbous, 75% of the Moon is Illuminated
May 19
Waning Gibbous
May 21
Last Quarter
May 28
New
Jun 6
First Quarter
Jun 13
Full

Hourly Weather History & Observations

Time (+0430) Temp. Dew Point Humidity Pressure Visibility Wind Dir Wind Speed Gust Speed Precip Events Conditions
12:25 AM 60.8 °F 30.2 °F 31% 29.98 in - Variable 3.5 mph - N/A   Unknown
1:24 AM 60.8 °F 33.8 °F 36% 29.95 in - NNW 2.3 mph - N/A   Unknown
2:25 AM 60.8 °F 44.6 °F 55% 29.98 in - West 2.3 mph - N/A   Unknown
3:25 AM 60.8 °F 44.6 °F 55% 29.98 in - West 1.2 mph - N/A   Unknown
4:24 AM 60.8 °F 42.8 °F 52% 29.98 in - South 4.6 mph - N/A   Unknown
5:25 AM 59.0 °F 37.4 °F 45% 30.01 in - South 4.6 mph - N/A   Unknown
6:25 AM 55.4 °F 37.4 °F 51% 30.04 in - NE 1.2 mph - N/A   Clear
7:25 AM 66.2 °F 37.4 °F 35% 30.04 in - North 1.2 mph - N/A   Clear
8:25 AM 69.8 °F 41.0 °F 35% 30.04 in - ENE 2.3 mph - N/A   Clear
9:25 AM 77.0 °F 37.4 °F 24% 30.04 in - Variable 3.5 mph - N/A   Clear
10:25 AM 82.4 °F 37.4 °F 20% 30.04 in 6.2 mi NW 3.5 mph - N/A   Partly Cloudy
11:24 AM 84.2 °F 37.4 °F 19% 30.04 in 6.2 mi NNW 5.8 mph - N/A   Partly Cloudy
12:24 PM 86.0 °F 30.2 °F 13% 30.01 in 6.2 mi Variable 4.6 mph - N/A   Partly Cloudy
1:25 PM 87.8 °F 26.6 °F 11% 30.01 in 6.2 mi NNE 3.5 mph - N/A   Partly Cloudy
2:25 PM 87.8 °F 24.8 °F 10% 29.98 in 6.2 mi North 6.9 mph - N/A   Partly Cloudy
3:25 PM 87.8 °F 24.8 °F 10% 29.98 in 6.2 mi NNW 5.8 mph - N/A   Partly Cloudy
4:25 PM 87.8 °F 23.0 °F 9% 29.95 in 6.2 mi WNW 5.8 mph - N/A   Partly Cloudy
7:25 PM 84.2 °F 24.8 °F 11% 29.95 in - SW 3.5 mph - N/A   Clear
8:25 PM 80.6 °F 23.0 °F 12% 29.95 in - South 4.6 mph - N/A   Clear
9:25 PM 77.0 °F 24.8 °F 14% 29.98 in - South 3.5 mph - N/A   Clear